Location: Lafig�re
(44.4503°N, 4.0357°E)
Time: 09:56:32
(UTC+00:00)

Transit 2A Rocket - Visible Passes

Search period start: 18 June 2021 00:00
Search period end: 28 June 2021 00:00
Orbit: 592 x 910 km, 66.7° (Epoch: 17 June)

Date Brightness Start Highest point End Pass type
(mag) Time Alt. Az. Time Alt. Az. Time Alt. Az.
18 Jun 5.3 01:21:36 27° WSW 01:23:26 42° NW 01:27:40 10° NNE visible
18 Jun 7.0 22:59:58 10° E 22:59:58 10° E 23:00:04 10° E visible
19 Jun 4.5 00:39:51 55° SW 00:40:43 77° WNW 00:45:10 10° NNE visible
19 Jun 7.0 02:22:01 10° WNW 02:24:06 13° NW 02:26:15 10° N visible
19 Jun 4.6 23:58:03 57° SE 23:58:09 58° ESE 00:02:29 10° NE visible
20 Jun 6.7 01:37:55 10° W 01:41:05 20° NW 01:44:22 10° N visible
20 Jun 5.6 23:16:13 30° E 23:16:13 30° E 23:19:33 10° NE visible
21 Jun 6.0 00:56:04 20° W 00:58:10 31° NW 01:02:09 10° NNE visible
21 Jun 6.5 22:34:20 16° E 22:34:20 16° E 22:36:07 10° ENE visible
22 Jun 5.1 00:14:11 39° WSW 00:15:23 52° NW 00:19:45 10° NNE visible
22 Jun 7.4 01:58:25 10° NW 01:59:04 10° NNW 01:59:44 10° NNW visible
22 Jun 4.3 23:32:15 70° SSW 23:32:43 86° ESE 23:37:11 10° NNE visible
23 Jun 7.1 01:13:22 10° WNW 01:15:58 15° NW 01:18:37 10° N visible
23 Jun 4.9 22:50:15 46° ESE 22:50:15 46° ESE 22:54:25 10° NE visible
24 Jun 6.6 00:30:06 13° W 00:32:57 23° NW 00:36:34 10° N visible
24 Jun 5.8 22:08:11 24° E 22:08:11 24° E 22:11:21 10° NE visible
24 Jun 5.8 23:48:02 23° W 23:50:05 37° NW 23:54:16 10° NNE visible
25 Jun 6.5 21:26:02 13° E 21:26:02 13° E 21:27:34 10° ENE visible
25 Jun 4.8 23:05:53 39° WSW 23:07:20 65° NW 23:11:49 10° NNE visible
26 Jun 7.4 00:49:11 10° NW 00:50:53 12° NNW 00:52:38 10° N visible
26 Jun 4.4 22:23:37 47° S 22:24:44 69° ESE 22:29:11 10° NE visible
27 Jun 7.1 00:04:50 10° W 00:07:48 18° NW 00:10:54 10° N visible
27 Jun 5.1 21:41:13 32° SE 21:42:15 36° ESE 21:46:19 10° NE visible
27 Jun 6.5 23:21:08 10° WSW 23:24:51 27° NW 23:28:44 10° NNE visible
